EHI
0 0 0 0 1 2 3 2 1 0 0 0 0 0 0 0 0 0 0 0 0 0 0 0 0 0 0 0 0 0 0 0 0 0 0 0 0 0 0 0 0 0 0
0 0 0 0 1 2 3 3 1 0 0 0 0 0 0 0 0 0 0 0 0 0 0 0 0 0 0 0 0 0 0 0 0 0 0 0 0 0 0 0 0 0 0
0 0 0 0 1 2 3 3 2 1 0 0 0 0 0 0 0 0 0 0 0 0 0 0 0 0 0 0 0 0 0 0 0 0 0 0 0 0 0 0 0 0 0
0 0 0 0 0 1 2 3 3 2 0 0 0 0 0 0 0 0 0 0 0 0 0 0 0 0 0 0 0 0 0 0 0 0 0 0 0 0 0 0 0 0 0
0 0 0 0 0 0 1 2 2 1 0 0 0 0 0 0 0 0 0 0 0 0 0 0 0 0 0 0 0 0 0 0 0 0 0 0 0 0 0 0 0 0 0
0 0 0 0 0 0 0 1 1 0 0 0 0 0 0 0 0 0 0 0 0 0 0 0 0 0 0 0 0 0 0 0 0 0 0 0 0 0 0 0 0 0 0
0 0 0 0 0 0 0 0 0 0 0 0 0 0 0 0 0 0 0 0 0 0 0 0 0 0 0 0 0 0 0 0 0 0 0 0 0 0 0 0 0 0 0
0 0 0 0 0 0 0 0 0 0 0 0 0 0 0 0 0 0 0 0 0 0 0 0 0 0 0 0 0 0 0 0 0 0 0 0 0 0 0 0 0 0 0
0 0 0 0 0 0 0 0 0 0 0 0 0 0 0 0 0 0 0 0 0 0 0 0 0 0 0 0 0 0 0 0 0 0 0 0 0 0 0 0 0 0 0
0 0 0 0 0 0 0 0 0 0 0 0 0 0 0 0 0 0 0 0 0 0 0 0 0 0 0 0 0 0 0 0 0 0 0 0 0 0 0 0 0 0 0
0 0 0 0 0 0 0 0 0 0 0 0 0 0 0 0 0 0 0 0 0 0 0 0 0 0 0 0 0 0 0 0 0 0 0 0 0 0 0 0 0 0 0
0 0 0 0 0 0 0 0 0 0 0 0 0 0 0 0 0 0 0 0 0 0 0 0 0 0 0 0 0 0 0 0 0 0 0 0 0 0 0 0 0 0 0
0 0 0 0 0 0 0 0 0 0 0 0 0 0 0 0 0 0 0 0 0 0 0 0 0 0 0 0 0 0 0 0 0 0 0 0 0 0 0 0 0 0 0
0 0 0 0 0 0 0 0 0 0 0 0 0 0 0 0 0 0 0 0 0 0 0 0 0 0 0 0 0 0 0 0 0 0 0 0 0 0 0 0 0 0 0
0 0 0 0 0 0 0 0 0 0 0 0 0 0 0 0 0 0 0 0 0 0 0 0 0 0 0 0 0 0 0 0 0 0 0 0 0 0 0 0 0 0 0
0 0 0 0 0 0 0 0 0 0 0 0 0 0 0 0 0 0 0 0 0 0 0 0 0 0 0 0 0 0 0 0 0 0 0 0 0 0 0 0 0 0 0
0 0 0 0 0 0 0 0 0 0 0 0 0 0 0 0 0 0 0 0 0 0 0 0 0 0 0 0 0 0 0 0 0 0 0 0 0 0 0 0 0 0 0
0 0 0 0 0 0 0 0 0 0 0 0 0 0 0 0 0 0 0 0 0 0 0 0 0 0 0 0 0 0 0 0 0 0 0 0 0 0 0 0 0 0 0
0 0 0 0 0 0 0 0 0 0 0 0 0 0 0 0 0 0 0 0 0 0 0 0 0 0 0 0 0 0 0 0 0 0 0 0 0 0 0 0 0 0 0
0 0 0 0 0 0 0 0 0 0 0 0 0 0 0 0 0 0 0 0 0 0 0 0 0 0 0 0 0 0 0 0 0 0 0 0 0 0 0 0 0 0 0
0 0 0 0 0 0 0 0 0 0 0 0 0 0 0 0 0 0 0 0 0 0 0 0 0 0 0 0 0 0 0 0 0 0 0 0 0 0 0 0 0 0 0
0 0 0 0 0 0 0 0 0 0 0 0 0 0 0 0 0 0 0 0 0 0 0 0 0 0 0 0 0 0 0 0 0 0 0 0 0 0 0 0 0 0 0
0 0 0 0 0 0 0 0 0 0 0 0 0 0 0 0 0 0 0 0 0 0 0 0 0 0 0 0 0 0 0 0 0 0 0 0 0 0 0 0 0 0 0
0 0 0 0 0 0 0 0 0 0 0 0 0 0 0 0 0 0 0 0 0 0 0 0 0 0 0 0 0 0 0 0 0 0 0 0 0 0 0 0 0 0 0
0 0 0 0 0 0 0 0 0 0 0 0 0 0 0 0 0 0 0 0 0 0 0 0 0 0 0 0 0 0 0 0 0 0 0 0 0 0 0 0 0 0 0
0 0 0 0 0 0 0 0 0 0 0 0 0 0 0 0 0 0 0 0 0 0 0 0 0 0 0 0 0 0 0 0 0 0 0 0 0 0 0 0 0 0 0
Wind_Speed
3 3 3 3 3 3 3 3 4 5 4 4 3 3 3 3 2 2 3 4 3 3 3 3 4 5 5 5 5 5 5 5 5 6 5 5 5 6 6 6 6 6 6
3 3 3 3 3 3 3 3 4 4 4 3 3 2 2 2 2 2 1 3 4 3 3 3 3 4 4 4 5 5 5 4 5 5 5 5 5 5 5 5 5 5 5
4 3 3 3 3 3 4 3 4 3 3 3 3 2 1 1 1 1 1 1 2 3 3 3 3 4 4 4 5 5 5 5 5 4 4 4 4 4 4 4 5 5 5
4 4 3 3 3 3 3 3 4 4 3 3 2 2 1 1 1 1 1 1 1 1 3 5 4 4 4 4 4 4 4 4 4 4 4 3 3 3 4 4 4 4 4
5 4 3 3 4 3 3 4 3 3 4 3 2 2 1 1 1 1 1 1 1 1 1 3 5 4 4 4 3 3 3 3 3 3 3 2 2 2 2 3 3 3 3
5 4 3 4 4 4 4 4 4 3 3 3 3 2 2 1 1 1 0 1 1 1 1 1 1 2 3 3 2 2 2 3 2 2 2 1 1 1 1 1 1 2 2
5 4 3 4 4 4 5 5 4 4 4 4 3 2 2 1 1 1 0 0 1 0 0 1 1 0 1 2 2 2 2 2 2 1 2 1 1 1 1 1 0 1 1
5 4 5 4 4 4 5 6 5 3 3 3 2 3 2 3 1 1 0 0 0 0 0 0 0 0 0 1 2 2 1 1 1 1 1 1 1 2 2 2 1 1 1
5 5 6 5 5 5 5 6 6 5 3 3 2 2 2 3 2 2 1 1 1 1 1 1 1 1 1 1 1 1 1 1 1 1 1 2 3 3 3 3 3 3 3
5 5 5 6 5 5 6 6 6 5 5 4 3 2 2 1 2 2 2 2 2 2 2 1 1 1 1 1 0 1 0 1 2 3 3 3 3 4 4 4 4 4 4
5 5 6 5 5 5 6 6 6 5 5 5 4 3 2 1 2 3 3 3 2 2 2 2 2 2 2 2 1 1 1 2 4 5 5 5 4 4 4 4 5 5 5
4 5 5 6 6 5 6 6 6 7 5 5 4 4 3 3 3 3 3 3 3 2 3 2 2 2 2 2 2 1 2 3 4 5 6 6 6 5 5 5 5 6 6
4 5 5 5 5 5 5 6 6 6 6 6 5 4 4 3 3 3 2 2 3 2 3 3 3 3 3 3 2 2 3 3 4 5 6 6 6 5 5 6 6 6 6
5 5 6 6 6 5 5 5 5 6 6 6 6 5 4 3 3 3 3 3 3 3 4 4 3 4 3 3 2 4 3 4 4 5 6 6 6 5 5 6 6 6 7
4 6 6 6 6 6 6 6 5 6 6 6 6 6 5 4 3 3 3 4 4 4 5 4 3 4 3 3 3 4 4 4 5 6 6 6 5 5 5 6 7 7 7
5 6 6 6 6 6 6 6 5 5 6 5 4 6 6 4 4 3 3 4 4 4 4 2 3 3 3 3 4 4 4 4 6 6 6 6 6 6 6 7 7 7 7
6 6 7 7 6 6 6 6 6 6 7 6 6 6 7 6 4 4 4 4 4 4 4 3 2 3 4 5 4 4 4 4 4 6 6 7 7 7 7 7 8 8 8
6 6 6 6 6 6 7 7 7 6 7 7 7 7 7 5 6 5 4 5 4 4 4 4 3 3 5 5 5 5 4 4 4 5 7 7 8 8 8 8 8 8 8
6 6 6 6 6 6 7 7 7 7 7 7 7 7 7 6 6 5 5 5 4 4 4 4 3 3 3 3 4 4 5 4 4 4 6 8 8 8 9 9 9 9 8
6 6 6 6 6 6 7 7 6 7 7 6 6 6 7 7 7 6 5 5 4 4 4 3 3 3 3 3 4 4 4 4 4 4 5 6 7 8 9 10 9 9 8
6 6 6 6 6 6 6 7 7 7 7 6 6 6 6 6 7 6 5 5 5 4 4 4 3 3 4 4 4 4 4 4 4 4 4 4 4 5 6 7 8 8 9
5 5 6 6 6 5 6 7 7 7 6 6 6 6 6 6 7 8 8 8 7 7 6 5 5 6 6 5 4 4 4 4 4 3 4 5 4 6 5 5 6 8 9
5 5 6 6 6 6 7 8 7 6 6 6 6 6 5 5 7 6 7 8 9 9 9 8 8 8 7 6 6 6 6 6 5 3 4 5 5 6 5 5 8 9 10
5 5 6 6 6 6 7 8 8 6 6 6 6 6 6 6 5 6 6 7 7 8 8 8 8 7 6 6 6 6 6 5 4 4 5 5 5 5 5 5 7 9 10
5 5 5 6 6 6 7 8 7 5 5 6 6 6 6 6 7 7 6 6 6 6 5 7 7 7 6 7 6 4 4 4 5 4 4 4 4 5 5 6 5 7 9
4 4 4 5 6 6 7 8 8 5 5 4 4 5 6 7 7 8 7 6 7 6 4 4 4 5 5 6 8 7 5 5 5 4 4 4 4 3 4 4 4 4 6
Wind_Direction
167 164 161 161 161 155 156 156 153 144 143 142 144 149 145 142 136 124 108 85 62 71 101 119 136 135 136 130 127 123 117 108 108 105 105 103 94 86 77 69 61 55 51
168 166 163 160 159 158 154 154 148 144 143 142 134 141 144 141 140 137 118 108 78 53 64 91 123 132 129 129 126 125 116 107 106 107 106 105 102 92 81 70 59 52 49
171 167 162 159 158 157 155 148 142 139 134 133 131 129 119 113 130 128 113 100 114 82 53 57 88 119 121 120 124 122 114 103 98 100 101 99 98 92 84 77 64 53 49
177 172 164 158 152 154 154 152 151 146 139 137 133 125 120 104 115 94 103 92 70 78 77 49 48 95 105 116 121 124 123 117 106 97 96 98 100 99 92 80 65 53 46
182 179 170 159 158 155 153 153 156 156 151 143 134 124 118 115 101 93 105 90 64 43 50 68 56 64 83 100 110 115 123 125 120 112 101 94 101 111 109 94 72 53 40
182 179 171 166 164 157 155 155 151 150 148 140 126 106 97 110 107 101 108 102 72 60 25 46 85 77 68 87 106 115 116 121 129 135 137 125 116 120 128 115 84 49 28
183 181 175 172 173 167 163 156 148 153 145 145 138 123 110 114 124 113 245 179 102 62 24 12 359 56 109 81 83 96 111 122 128 150 167 177 189 212 202 165 88 28 9
188 187 184 180 179 172 167 161 150 158 153 173 173 170 178 181 169 207 206 256 231 155 34 296 275 236 149 153 80 71 83 145 158 174 197 208 226 234 242 248 254 267 298
196 193 189 183 182 182 178 177 170 177 172 183 202 203 199 199 183 179 208 217 231 249 250 256 250 256 235 210 166 116 53 332 221 232 247 249 248 247 246 256 262 264 272
201 196 195 192 187 189 184 186 182 184 184 188 194 241 282 239 198 182 189 209 233 244 234 233 242 251 252 249 255 14 259 264 248 253 259 260 262 261 262 261 265 270 274
202 198 195 196 194 195 190 186 184 188 192 199 197 193 199 228 238 227 220 210 219 238 244 236 232 233 243 257 250 270 283 251 251 257 258 261 269 274 273 280 280 279 281
196 198 197 197 195 196 193 190 191 195 200 205 207 206 209 212 214 229 234 225 230 231 240 245 241 238 230 235 246 285 263 259 258 259 259 263 270 281 282 280 286 293 290
194 198 199 201 198 196 195 194 197 199 202 206 210 214 223 233 228 235 232 234 246 245 237 238 241 238 235 233 229 238 241 256 264 261 261 267 275 284 298 288 282 286 292
197 196 199 202 201 197 196 197 199 201 203 207 213 216 220 226 223 227 227 227 238 242 235 230 230 235 237 239 242 234 233 244 263 266 265 276 283 287 292 290 284 284 290
194 194 197 199 200 197 196 196 201 201 203 209 212 214 220 222 225 227 227 228 234 243 241 230 227 223 235 238 226 235 244 238 256 263 264 273 277 274 275 283 283 282 284
196 193 195 198 198 198 198 196 203 205 205 210 212 215 220 221 220 220 224 234 242 246 249 235 234 234 230 240 235 244 250 252 247 249 253 258 261 260 263 272 277 279 280
198 196 195 197 200 201 200 199 202 202 209 213 214 217 220 221 219 219 221 226 233 236 244 255 250 236 232 234 233 240 245 248 239 238 248 257 259 256 258 266 272 273 275
196 197 196 198 201 204 204 203 202 204 209 212 213 215 220 219 221 220 219 223 229 233 237 242 245 237 238 239 240 241 246 252 253 241 245 254 256 256 257 263 270 272 274
195 193 194 199 202 204 206 207 207 210 214 216 215 218 220 218 220 219 221 224 226 230 235 233 239 246 246 237 240 245 248 250 255 249 248 248 250 255 258 259 264 269 271
195 196 199 200 201 203 207 207 207 212 215 216 217 220 222 221 222 221 222 223 220 220 224 223 232 240 244 244 243 242 247 247 252 254 254 256 253 255 257 258 259 264 269
202 201 201 201 203 205 207 207 209 212 213 214 215 219 224 226 227 225 224 220 217 219 220 223 230 237 235 230 236 239 250 258 257 250 256 255 255 255 255 252 251 258 263
204 204 204 203 207 210 204 207 211 211 211 211 215 218 220 221 223 223 226 226 225 223 221 224 231 232 235 236 237 237 244 254 259 236 255 262 259 258 257 256 258 258 260
203 206 207 206 212 213 202 205 212 215 215 215 216 216 218 222 225 228 226 226 231 236 233 235 235 237 236 230 226 232 237 245 259 258 259 260 255 260 262 263 262 261 262
205 209 209 209 213 213 204 205 209 218 220 220 221 220 220 220 222 225 227 230 236 237 237 239 244 245 244 236 231 237 246 256 274 259 247 259 262 266 272 268 261 261 262
209 213 212 211 213 211 203 203 207 217 219 223 226 227 225 224 222 221 225 230 237 244 242 242 252 254 251 243 235 229 229 240 257 250 236 253 267 279 277 269 261 256 262
209 210 215 217 217 217 204 203 210 217 217 220 224 227 228 232 224 218 226 228 232 237 235 239 242 240 238 228 227 232 232 239 255 255 223 235 259 276 277 266 269 272 268